Time,TemperatureF,DewpointF,PressureIn,WindDirection,WindDirectionDegrees,WindSpeedMPH,WindSpeedGustMPH,Humidity,HourlyPrecipIn,Conditions,Clouds,dailyrainin,SoftwareType,DateUTC
2013-09-17 00:23:00,53.0,49.0,30.14,SE,136,6.0,-999.0,85,-99.99,,,-99.99,,2013-09-17 05:23:00,
2013-09-17 00:52:00,52.0,48.0,30.14,North,360,9.0,-999.0,86,-99.99,,,-99.99,,2013-09-17 05:52:00,
2013-09-17 01:12:00,52.0,48.0,30.14,North,360,9.0,-999.0,86,-99.99,,,-99.99,,2013-09-17 06:12:00,
2013-09-17 01:22:00,53.0,49.0,30.13,North,360,10.0,-999.0,87,-99.99,,,-99.99,,2013-09-17 06:22:00,
2013-09-17 01:52:00,53.0,49.0,30.13,ESE,111,9.0,-999.0,87,-99.99,,,-99.99,,2013-09-17 06:52:00,
2013-09-17 02:11:00,52.0,48.0,30.13,SE,137,9.0,-999.0,87,-99.99,,,-99.99,,2013-09-17 07:11:00,
2013-09-17 02:23:00,52.0,49.0,30.12,North,360,8.0,-999.0,88,-99.99,,,-99.99,,2013-09-17 07:23:00,
2013-09-17 02:52:00,51.0,48.0,30.12,SE,134,8.0,-999.0,88,-99.99,,,-99.99,,2013-09-17 07:52:00,
2013-09-17 03:12:00,51.0,48.0,30.12,North,360,7.0,-999.0,88,-99.99,,,-99.99,,2013-09-17 08:12:00,
2013-09-17 03:22:00,51.0,48.0,30.11,North,360,7.0,-999.0,89,-99.99,,,-99.99,,2013-09-17 08:22:00,
2013-09-17 03:52:00,50.0,47.0,30.11,SE,143,7.0,-999.0,90,-99.99,,,-99.99,,2013-09-17 08:52:00,
2013-09-17 04:12:00,49.0,46.0,30.10,North,360,6.0,-999.0,90,-99.99,,,-99.99,,2013-09-17 09:12:00,
2013-09-17 04:22:00,49.0,46.0,30.10,North,360,7.0,-999.0,91,-99.99,,,-99.99,,2013-09-17 09:22:00,
2013-09-17 04:53:00,49.0,46.0,30.09,North,360,10.0,-999.0,91,-99.99,,,-99.99,,2013-09-17 09:53:00,
2013-09-17 05:12:00,49.0,47.0,30.08,North,360,8.0,-999.0,92,-99.99,,,-99.99,,2013-09-17 10:12:00,
2013-09-17 05:23:00,49.0,47.0,30.08,North,360,10.0,-999.0,92,-99.99,,,-99.99,,2013-09-17 10:23:00,
2013-09-17 05:42:00,50.0,47.0,30.07,North,360,10.0,-999.0,90,-99.99,,,-99.99,,2013-09-17 10:42:00,
2013-09-17 05:53:00,50.0,47.0,30.06,North,360,10.0,-999.0,90,-99.99,,,-99.99,,2013-09-17 10:53:00,
2013-09-17 06:11:00,50.0,47.0,30.06,North,360,10.0,-999.0,90,-99.99,,,-99.99,,2013-09-17 11:11:00,
2013-09-17 06:22:00,50.0,47.0,30.06,East,96,10.0,-999.0,90,-99.99,,,-99.99,,2013-09-17 11:22:00,
2013-09-17 06:52:00,50.0,47.0,30.05,SSE,155,9.0,-999.0,91,-99.99,,,-99.99,,2013-09-17 11:52:00,
2013-09-17 07:12:00,50.0,47.0,30.05,North,360,10.0,-999.0,91,-99.99,,,-99.99,,2013-09-17 12:12:00,
2013-09-17 07:22:00,50.0,47.0,30.05,North,360,9.0,-999.0,91,-99.99,,,-99.99,,2013-09-17 12:22:00,
2013-09-17 07:52:00,51.0,48.0,30.05,North,360,9.0,-999.0,90,-99.99,,,-99.99,,2013-09-17 12:52:00,
2013-09-17 08:22:00,51.0,48.0,30.04,North,360,10.0,-999.0,90,-99.99,,,-99.99,,2013-09-17 13:22:00,
2013-09-17 08:52:00,52.0,49.0,30.03,SE,146,11.0,-999.0,90,-99.99,,,-99.99,,2013-09-17 13:52:00,
2013-09-17 09:11:00,52.0,49.0,30.03,North,360,10.0,-999.0,90,-99.99,,,-99.99,,2013-09-17 14:11:00,
2013-09-17 09:22:00,52.0,49.0,30.02,SSE,153,12.0,-999.0,90,-99.99,,,-99.99,,2013-09-17 14:22:00,
2013-09-17 09:52:00,52.0,49.0,30.01,East,96,9.0,-999.0,90,-99.99,,,-99.99,,2013-09-17 14:52:00,
2013-09-17 10:11:00,53.0,50.0,30.01,SSE,153,10.0,-999.0,90,-99.99,,,-99.99,,2013-09-17 15:11:00,
2013-09-17 10:22:00,54.0,51.0,30.01,North,360,12.0,-999.0,89,-99.99,,,-99.99,,2013-09-17 15:22:00,
2013-09-17 10:44:00,54.0,51.0,30.01,North,360,13.0,-999.0,89,-99.99,,,-99.99,,2013-09-17 15:44:00,
2013-09-17 10:53:00,55.0,52.0,30.01,North,360,13.0,-999.0,89,-99.99,,,-99.99,,2013-09-17 15:53:00,
2013-09-17 11:23:00,56.0,52.0,30.00,North,360,11.0,-999.0,88,-99.99,,,-99.99,,2013-09-17 16:23:00,
2013-09-17 11:53:00,57.0,53.0,29.99,North,360,10.0,-999.0,87,-99.99,,,-99.99,,2013-09-17 16:53:00,
2013-09-17 12:23:00,58.0,54.0,29.98,North,360,14.0,-999.0,87,-99.99,,,-99.99,,2013-09-17 17:23:00,
2013-09-17 12:53:00,59.0,55.0,29.97,SE,141,12.0,-999.0,86,-99.99,,,-99.99,,2013-09-17 17:53:00,
2013-09-17 13:12:00,59.0,54.0,29.96,SSE,161,14.0,-999.0,85,-99.99,,,-99.99,,2013-09-17 18:12:00,
2013-09-17 13:22:00,59.0,54.0,29.96,SSE,147,12.0,-999.0,85,-99.99,,,-99.99,,2013-09-17 18:22:00,
2013-09-17 13:52:00,61.0,56.0,29.94,North,360,15.0,-999.0,83,-99.99,,,-99.99,,2013-09-17 18:52:00,
2013-09-17 14:12:00,61.0,56.0,29.93,North,360,12.0,-999.0,83,-99.99,,,-99.99,,2013-09-17 19:12:00,
2013-09-17 14:22:00,62.0,56.0,29.93,SSE,155,13.0,-999.0,81,-99.99,,,-99.99,,2013-09-17 19:22:00,
2013-09-17 14:52:00,62.0,56.0,29.92,North,360,13.0,-999.0,82,-99.99,,,-99.99,,2013-09-17 19:52:00,
2013-09-17 15:11:00,62.0,56.0,29.91,North,360,14.0,-999.0,81,-99.99,,,-99.99,,2013-09-17 20:11:00,
2013-09-17 15:22:00,62.0,56.0,29.91,North,360,11.0,-999.0,82,-99.99,,,-99.99,,2013-09-17 20:22:00,
2013-09-17 15:52:00,62.0,56.0,29.90,SSE,152,13.0,-999.0,82,-99.99,,,-99.99,,2013-09-17 20:52:00,
2013-09-17 16:12:00,62.0,56.0,29.89,North,360,11.0,-999.0,82,-99.99,,,-99.99,,2013-09-17 21:12:00,
2013-09-17 16:22:00,62.0,56.0,29.89,SE,146,14.0,-999.0,82,-99.99,,,-99.99,,2013-09-17 21:22:00,
2013-09-17 16:54:00,61.0,56.0,29.88,SE,136,12.0,-999.0,83,-99.99,,,-99.99,,2013-09-17 21:54:00,
2013-09-17 17:13:00,61.0,56.0,29.88,SSE,153,14.0,-999.0,83,-99.99,,,-99.99,,2013-09-17 22:13:00,
2013-09-17 17:24:00,61.0,56.0,29.88,SSE,159,13.0,-999.0,83,-99.99,,,-99.99,,2013-09-17 22:24:00,
2013-09-17 17:53:00,61.0,56.0,29.87,SSE,161,10.0,-999.0,83,-99.99,,,-99.99,,2013-09-17 22:53:00,
2013-09-17 18:22:00,61.0,56.0,29.86,North,360,13.0,-999.0,84,-99.99,,,-99.99,,2013-09-17 23:22:00,
2013-09-17 18:52:00,60.0,55.0,29.86,ESE,105,12.0,-999.0,85,-99.99,,,-99.99,,2013-09-17 23:52:00,
2013-09-17 19:11:00,60.0,56.0,29.85,North,360,10.0,-999.0,86,-99.99,,,-99.99,,2013-09-18 00:11:00,
2013-09-17 19:22:00,59.0,55.0,29.85,SSE,159,12.0,-999.0,87,-99.99,,,-99.99,,2013-09-18 00:22:00,
2013-09-17 19:42:00,59.0,55.0,29.85,North,360,9.0,-999.0,87,-99.99,,,-99.99,,2013-09-18 00:42:00,
2013-09-17 19:52:00,59.0,55.0,29.85,North,360,11.0,-999.0,88,-99.99,,,-99.99,,2013-09-18 00:52:00,
2013-09-17 20:11:00,59.0,56.0,29.85,SSE,148,11.0,-999.0,89,-99.99,,,-99.99,,2013-09-18 01:11:00,
2013-09-17 20:22:00,58.0,55.0,29.85,SE,142,11.0,-999.0,91,-99.99,,,-99.99,,2013-09-18 01:22:00,
2013-09-17 20:52:00,57.0,55.0,29.85,North,360,12.0,-999.0,93,-99.99,,,-99.99,,2013-09-18 01:52:00,
2013-09-17 21:22:00,57.0,55.0,29.85,North,360,10.0,-999.0,94,-99.99,,,-99.99,,2013-09-18 02:22:00,
2013-09-17 21:43:00,57.0,55.0,29.85,North,360,11.0,-999.0,94,-99.99,,,-99.99,,2013-09-18 02:43:00,
2013-09-17 21:52:00,57.0,55.0,29.85,SSE,150,11.0,-999.0,93,-99.99,,,-99.99,,2013-09-18 02:52:00,
2013-09-17 22:12:00,57.0,55.0,29.85,South,169,9.0,-999.0,93,-99.99,,,-99.99,,2013-09-18 03:12:00,
2013-09-17 22:23:00,57.0,55.0,29.85,SSE,156,10.0,-999.0,93,-99.99,,,-99.99,,2013-09-18 03:23:00,
2013-09-17 22:55:00,57.0,55.0,29.84,North,360,9.0,-999.0,94,-99.99,,,-99.99,,2013-09-18 03:55:00,
2013-09-17 23:14:00,57.0,55.0,29.84,SE,141,7.0,-999.0,94,-99.99,,,-99.99,,2013-09-18 04:14:00,
2013-09-17 23:24:00,57.0,55.0,29.84,SE,141,7.0,-999.0,94,-99.99,,,-99.99,,2013-09-18 04:24:00,
2013-09-17 23:44:00,57.0,55.0,29.83,North,360,8.0,-999.0,94,-99.99,,,-99.99,,2013-09-18 04:44:00,
2013-09-17 23:54:00,57.0,55.0,29.83,North,360,8.0,-999.0,94,-99.99,,,-99.99,,2013-09-18 04:54:00,